Home   Weather   Limerick   Past weeks

Flag for Ireland Past Weather in Limerick, Ireland — Yesterday and Last 2 Weeks

Now
44 °F

Quite cool.


Feels Like: 38 °F
Forecast: 38 / 42 °F
Wind: 12 mph from Northwest

Location: Valentia Observatory

Current Time: Jan 19, 2018 at 10:16:10 am

Latest Report: Jan 19, 2018 at 9:00 am


Visibility: 15 mi

Pressure: 29.88 "Hg

Humidity: 65%

Dew Point: 33 °F

Location of LimerickLocation

Past Weather in Limerick — Graph

°F

Limerick Temperature Yesterday

Maximum temperature yesterday: 48 °F (at 12:00 am)
Minimum temperature yesterday: 41 °F (at 9:00 pm)
Average temperature yesterday: 44 °F

High & Low Weather Summary for the Past Weeks

 TemperatureHumidityPressure
High54 °F (Jan 17, 9:00 pm)97% (Jan 11, 8:00 am)30.43 "Hg (Jan 11, 8:00 am)
Low31 °F (Jan 7, 10:00 am)54% (Jan 7, 2:00 pm)29.23 "Hg (Jan 4, 8:00 pm)
Average44 °F83%29.73 "Hg
* Reported Jan 4 7:00 am — Jan 19 7:00 am, Limerick. Weather by CustomWeather, © 2018

Note: Actual official high and low records may vary slightly from our data, if they occured in-between our weather recording intervals... More about our weather records

Advertising

Limerick Weather History for the Previous 24 Hours

Scroll right to see more
 ConditionsComfort  
Time TempWeatherWind HumidityBarometerVisibility
7:00 am
Fri, Jan 19
44 °FQuite cool.13 mph62%29.86 "Hg16 mi
4:00 am43 °FQuite cool.10 mph70%29.87 "Hg15 mi
3:00 am40 °FQuite cool.9 mph81%29.87 "Hg17 mi
2:00 am43 °FQuite cool.9 mph71%29.86 "Hg14 mi
1:00 am42 °FQuite cool.9 mph78%29.86 "Hg14 mi
12:00 am40 °FQuite cool.9 mph86%29.86 "Hg7 mi
11:00 pm
Thu, Jan 18
41 °FQuite cool.7 mph72%29.85 "Hg31 mi
10:00 pm41 °FQuite cool.9 mph74%29.85 "Hg19 mi
9:00 pm41 °FQuite cool.6 mph80%29.83 "Hg14 mi
8:00 pm41 °FQuite cool.10 mph72%29.81 "Hg7 mi
7:00 pm44 °FQuite cool.10 mph71%29.81 "Hg19 mi
6:00 pm44 °FQuite cool.9 mph73%29.80 "Hg16 mi
5:00 pm43 °FQuite cool.10 mph77%29.79 "Hg15 mi
4:00 pm41 °FQuite cool.13 mph78%29.80 "Hg9 mi
3:00 pm44 °FQuite cool.10 mph72%29.78 "Hg15 mi
2:00 pm41 °FDrizzle. Cloudy.13 mph81%29.78 "Hg7 mi
1:00 pm43 °FQuite cool.7 mph75%29.78 "Hg14 mi
12:00 pm45 °FCool.10 mph66%29.77 "Hg16 mi
11:00 am45 °FCool.12 mph66%29.76 "Hg19 mi
10:00 am44 °FQuite cool.10 mph70%29.73 "Hg17 mi
Weather by CustomWeather, © 2018

See weather overview